Home > Weather > Sevierville > Past weeks

Flag for USA Past Weather in Sevierville, Tennessee, USA — Yesterday and Last 2 Weeks

Now
75 °F

Passing clouds.


Feels Like: 76 °F
Forecast: 69 / 92 °F
Wind: 6 mph from North

Location: McGhee Tyson Airport

Current Time: Aug 28, 2016 at 11:56:08 PM

Latest Report: Aug 28, 2016 at 10:53 PM


Visibility: 10 mi

Pressure: 30.11 "Hg

Humidity: 79%

Dew Point: 68 °F

Location of SeviervilleLocation

Past Weather in Sevierville — Graph

°F

Sevierville Temperature Yesterday

Maximum temperature yesterday: 95 °F (at 2:53 PM)
Minimum temperature yesterday: 72 °F (at 6:53 AM)
Average temperature yesterday: 79 °F

High & Low Weather Summary for the Past Weeks

 TemperatureHumidityPressure
High96 °F (Aug 16, 4:53 PM)97% (Aug 17, 4:53 AM)30.26 "Hg (Aug 17, 4:53 AM)
Low61 °F (Aug 23, 6:53 AM)35% (Aug 16, 5:53 PM)29.80 "Hg (Aug 20, 4:53 PM)
Average79 °F74%30.08 "Hg
* Reported Aug 13 9:53 PM — Aug 28 9:53 PM, Sevierville, Weather by CustomWeather, © 2016

Note: Actual official high and low records may vary slightly from our data, if they occured in-between our weather recording intervals... More about our weather records

Advertising

Sevierville Weather History for the Previous 24 Hours

Scroll right to see more
 ConditionsComfort  
Time TempWeatherWind HumidityBarometerVisibility
9:53 PM
Sun, Aug 28
77 °FOvercast.6 mph71%30.11 "Hg10 mi
8:53 PM77 °FOvercast.6 mph71%30.07 "Hg10 mi
7:53 PM79 °FPartly sunny.8 mph67%30.06 "Hg10 mi
6:53 PM81 °FThunderstorms. Broken clouds.10 mph60%30.06 "Hg10 mi
5:53 PM92 °FScattered clouds.6 mph46%30.04 "Hg10 mi
4:53 PM92 °FScattered clouds.No wind44%30.03 "Hg10 mi
2:53 PM91 °FMostly cloudy.7 mph47%30.09 "Hg10 mi
12:53 PM87 °FScattered clouds.3 mph53%30.14 "Hg10 mi
11:53 AM86 °FLight fog.No wind57%30.16 "Hg10 mi
10:53 AM84 °FLight fog.No wind59%30.17 "Hg10 mi
9:53 AM79 °FLight fog.No wind74%30.17 "Hg10 mi
8:53 AM75 °FLight fog.No wind85%30.17 "Hg10 mi
7:53 AM71 °FLight fog.3 mph93%30.16 "Hg8 mi
6:53 AM70 °FLight fog.3 mph93%30.14 "Hg8 mi
5:53 AM70 °FFog.6 mph97%30.12 "Hg6 mi
4:53 AM72 °FPassing clouds.3 mph93%30.10 "Hg9 mi
3:53 AM72 °FPassing clouds.5 mph93%30.08 "Hg10 mi
2:53 AM72 °FPassing clouds.No wind91%30.08 "Hg10 mi
1:53 AM73 °FPassing clouds.5 mph88%30.09 "Hg10 mi
12:53 AM73 °FPassing clouds.5 mph88%30.10 "Hg10 mi
11:53 PM
Sat, Aug 27
73 °FPassing clouds.3 mph90%30.12 "Hg10 mi
Weather by CustomWeather, © 2016

See weather overviewHow to use our weather pages